Погода в Черноморском

Россия / Краснодарский край     44°50′52″N   38°29′52″E
темп.,
°C
ветер,
м/с
пор.,
м/с
влажн.,
%
обл.,
%
осадки,
мм/ч
давл.,
гПа
погр.,
м
16 июня, ср
ср1600:00+15юз11895 0.0 101011
03:00+14з1193100 0.3 101113
06:00+15сз129498 0.5 101183
09:00+19с238594 1.5 1011489
12:00+21св257328 0.6 1010850
15:00+22св377785 0.7 1008862
18:00+22с378791 0.3 1007540
21:00+19ссз229847 0.5 100669
17 июня, чт
чт1700:00+19юв2599100 0.3 1004172
03:00+18ююв4119651 10.6 1005620
06:00+18ююв6169265 0.1 10061137
09:00+19ю10168486 0.2 10091121
12:00+18ююз6118980 0.8 1012899
15:00+18ю71388100 1.5 1013967
18:00+19ююз6137988 0.1 10131085
21:00+17ююз4989100 0.1 1016444
18 июня, пт
пт1800:00+16ююз411883 0.0 1016559
03:00+15ююз39943 0.0 1016337
06:00+16ююв22933 0.0 101786
09:00+22ю126411 0.0 1017924
12:00+23всв336620 0.8 10171088
15:00+25св455925 1.9 10161443
18:00+23св48716 0.4 1016877
21:00+18св25870 0.4 1016122
19 июня, сб
сб1900:00+16св25933 0.0 1016121
03:00+15всв22977 0.0 101538
06:00+17св269882 0.0 1015243
09:00+22всв510720 0.0 1014712
12:00+27всв710592 0.0 10121213
15:00+29всв7105730 0.0 10111678
18:00+27всв711712 0.0 10101205
21:00+24в513710 0.0 1010631
20 июня, вс
вс2000:00+19в25800 0.0 101097
03:00+17юв22863 0.0 101149
06:00+18вюв12860 0.0 101282
09:00+24с11670 0.0 1011496
12:00+28ссв22550 0.0 1010872
15:00+28св33550 0.0 10101053
18:00+28с24660 0.0 1009730
21:00+22всв11900 0.0 100911